• în Republica Moldova
  • Lista ţărilor
  • Pe 7 zile
  • Temperatura apei
  • Hartă satelitară
  • Meteo pe hartă
  • Widget-uri
  • user-avatar
    Intrare

    Meteo pe oră la Klagenfurt

    Astăzi, 23 Iulie, Duminică

    Timp Temperatura Precipitaţii Vânt Presiune Umiditate
    00:00 +18°C° 0 mm 1 m/s 690 mmHg 87%
    01:00 +16°C° 0 mm 1 m/s 690 mmHg 88%
    02:00 +16°C° 0 mm 1 m/s 690 mmHg 87%
    03:00 +16°C° 0 mm 1 m/s 690 mmHg 87%
    04:00 +16°C° 0 mm 1 m/s 690 mmHg 87%
    05:00 +18°C° 0 mm 1 m/s 690 mmHg 82%
    06:00 +20°C° 0 mm 1 m/s 691 mmHg 77%
    07:00 +19°C° 0 mm 0 m/s 691 mmHg 72%
    08:00 +24°C° 0,1 mm 1 m/s 691 mmHg 66%
    09:00 +26°C° 0,1 mm 1 m/s 692 mmHg 60%
    10:00 +28°C° 0,1 mm 1 m/s 692 mmHg 54%
    11:00 +28°C° 0,6 mm 1 m/s 692 mmHg 54%
    12:00 +28°C° 0,6 mm 1 m/s 692 mmHg 55%
    13:00 +28°C° 0,6 mm 1 m/s 692 mmHg 56%
    14:00 +28°C° 0,7 mm 1 m/s 692 mmHg 58%
    15:00 +27°C° 0,7 mm 1 m/s 691 mmHg 60%
    16:00 +27°C° 0,7 mm 1 m/s 691 mmHg 62%
    17:00 +25°C° 0,8 mm 1 m/s 691 mmHg 68%
    18:00 +23°C° 0,8 mm 1 m/s 691 mmHg 75%
    19:00 +22°C° 0,8 mm 1 m/s 690 mmHg 81%
    20:00 +21°C° 0,4 mm 1 m/s 690 mmHg 84%
    21:00 +20°C° 0,4 mm 1 m/s 690 mmHg 87%
    22:00 +18°C° 0,4 mm 1 m/s 690 mmHg 90%
    23:00 +18°C° 0,2 mm 1 m/s 690 mmHg 91%

    Mâine, 24 Iulie, Luni

    Timp Temperatura Precipitaţii Vânt Presiune Umiditate
    00:00 +18°C° 0,2 mm 1 m/s 690 mmHg 92%
    01:00 +16°C° 0,2 mm 1 m/s 689 mmHg 93%
    02:00 +16°C° 0,5 mm 1 m/s 689 mmHg 93%
    03:00 +16°C° 0,5 mm 1 m/s 689 mmHg 94%
    04:00 +16°C° 0,5 mm 1 m/s 688 mmHg 95%
    05:00 +18°C° 1,3 mm 1 m/s 688 mmHg 94%
    06:00 +18°C° 1,3 mm 1 m/s 688 mmHg 94%
    07:00 +19°C° 1,3 mm 1 m/s 688 mmHg 93%
    08:00 +19°C° 1,6 mm 1 m/s 687 mmHg 93%
    09:00 +19°C° 1,6 mm 1 m/s 687 mmHg 93%
    10:00 +19°C° 1,6 mm 1 m/s 687 mmHg 94%
    11:00 +20°C° 1,3 mm 1 m/s 686 mmHg 92%
    12:00 +20°C° 1,3 mm 1 m/s 686 mmHg 91%
    13:00 +21°C° 1,3 mm 1 m/s 685 mmHg 90%
    14:00 +21°C° 0,8 mm 1 m/s 685 mmHg 87%
    15:00 +21°C° 0,8 mm 1 m/s 684 mmHg 84%
    16:00 +22°C° 0,8 mm 1 m/s 684 mmHg 81%
    17:00 +21°C° 0,6 mm 1 m/s 684 mmHg 83%
    18:00 +20°C° 0,6 mm 1 m/s 684 mmHg 85%
    19:00 +20°C° 0,6 mm 1 m/s 683 mmHg 86%
    20:00 +18°C° 2,3 mm 1 m/s 683 mmHg 89%
    21:00 +16°C° 2,3 mm 1 m/s 683 mmHg 92%
    22:00 +15°C° 2,3 mm 2 m/s 683 mmHg 95%
    23:00 +14°C° 1,1 mm 2 m/s 683 mmHg 95%

    Poimâine, 25 Iulie, Marţi

    Timp Temperatura Precipitaţii Vânt Presiune Umiditate
    00:00 +14°C° 1,1 mm 2 m/s 683 mmHg 95%
    01:00 +13°C° 1,1 mm 2 m/s 683 mmHg 95%
    02:00 +13°C° 0,1 mm 2 m/s 682 mmHg 95%
    03:00 +12°C° 0,1 mm 2 m/s 682 mmHg 95%
    04:00 +12°C° 0,1 mm 1 m/s 682 mmHg 95%
    05:00 +12°C° 0,2 mm 1 m/s 682 mmHg 94%
    06:00 +13°C° 0,2 mm 1 m/s 682 mmHg 93%
    07:00 +13°C° 0,2 mm 1 m/s 683 mmHg 92%
    08:00 +14°C° 0,2 mm 1 m/s 683 mmHg 85%
    09:00 +15°C° 0,2 mm 1 m/s 683 mmHg 79%
    10:00 +16°C° 0,2 mm 1 m/s 683 mmHg 73%
    11:00 +18°C° 0,2 mm 1 m/s 683 mmHg 68%
    12:00 +19°C° 0,2 mm 1 m/s 683 mmHg 63%
    13:00 +20°C° 0,2 mm 1 m/s 683 mmHg 58%
    14:00 +20°C° 0,1 mm 1 m/s 683 mmHg 58%
    15:00 +20°C° 0,1 mm 1 m/s 683 mmHg 58%
    16:00 +20°C° 0,1 mm 1 m/s 683 mmHg 58%
    17:00 +19°C° 0,2 mm 1 m/s 683 mmHg 66%
    18:00 +16°C° 0,2 mm 1 m/s 683 mmHg 74%
    19:00 +15°C° 0,2 mm 1 m/s 683 mmHg 81%
    20:00 +14°C° 0,1 mm 1 m/s 683 mmHg 84%
    21:00 +13°C° 0,1 mm 1 m/s 683 mmHg 87%
    22:00 +12°C° 0,1 mm 1 m/s 683 mmHg 90%
    23:00 +11°C° 0 mm 1 m/s 683 mmHg 91%

    26 Iulie, Miercuri

    Timp Temperatura Precipitaţii Vânt Presiune Umiditate
    00:00 +11°C° 0 mm 1 m/s 683 mmHg 91%
    01:00 +10°C° 0 mm 1 m/s 683 mmHg 92%
    02:00 +10°C° 0,1 mm 1 m/s 683 mmHg 92%
    03:00 +10°C° 0,1 mm 1 m/s 683 mmHg 92%
    04:00 +10°C° 0,1 mm 1 m/s 682 mmHg 91%
    05:00 +11°C° 0,1 mm 1 m/s 683 mmHg 87%
    06:00 +12°C° 0,1 mm 1 m/s 683 mmHg 83%
    07:00 +13°C° 0,1 mm 1 m/s 683 mmHg 78%
    08:00 +15°C° 0,1 mm 1 m/s 683 mmHg 72%
    09:00 +18°C° 0,1 mm 1 m/s 684 mmHg 66%
    10:00 +19°C° 0,1 mm 1 m/s 684 mmHg 60%
    11:00 +21°C° 0,2 mm 1 m/s 684 mmHg 56%
    12:00 +22°C° 0,2 mm 1 m/s 684 mmHg 51%
    13:00 +24°C° 0,2 mm 1 m/s 685 mmHg 47%
    14:00 +23°C° 0,2 mm 1 m/s 685 mmHg 48%
    15:00 +23°C° 0,2 mm 1 m/s 684 mmHg 49%
    16:00 +23°C° 0,2 mm 1 m/s 684 mmHg 50%
    17:00 +21°C° 0,3 mm 1 m/s 684 mmHg 58%
    18:00 +19°C° 0,3 mm 1 m/s 684 mmHg 66%
    19:00 +16°C° 0,3 mm 0 m/s 684 mmHg 74%
    20:00 +15°C° 0,2 mm 1 m/s 685 mmHg 77%
    21:00 +14°C° 0,2 mm 1 m/s 685 mmHg 80%
    22:00 +13°C° 0,2 mm 1 m/s 685 mmHg 83%
    23:00 +12°C° 0 mm 1 m/s 685 mmHg 84%

    27 Iulie, Joi

    Timp Temperatura Precipitaţii Vânt Presiune Umiditate
    00:00 +12°C° 0 mm 1 m/s 685 mmHg 85%
    01:00 +11°C° 0 mm 1 m/s 685 mmHg 86%
    02:00 +11°C° 0,1 mm 1 m/s 685 mmHg 85%
    03:00 +11°C° 0,1 mm 1 m/s 686 mmHg 85%
    04:00 +11°C° 0,1 mm 1 m/s 686 mmHg 84%
    05:00 +12°C° 0,2 mm 1 m/s 686 mmHg 84%
    06:00 +13°C° 0,2 mm 1 m/s 687 mmHg 84%
    07:00 +13°C° 0,2 mm 1 m/s 687 mmHg 83%
    08:00 +15°C° 0,2 mm 1 m/s 688 mmHg 78%
    09:00 +16°C° 0,2 mm 1 m/s 688 mmHg 73%
    10:00 +19°C° 0,2 mm 1 m/s 689 mmHg 68%
    11:00 +19°C° 0,1 mm 2 m/s 689 mmHg 62%
    12:00 +20°C° 0,1 mm 2 m/s 689 mmHg 56%
    13:00 +23°C° 0,1 mm 2 m/s 690 mmHg 49%
    14:00 +23°C° 0 mm 2 m/s 690 mmHg 49%
    15:00 +23°C° 0 mm 2 m/s 690 mmHg 48%
    16:00 +23°C° 0 mm 2 m/s 690 mmHg 47%
    17:00 +22°C° 0 mm 1 m/s 690 mmHg 55%
    18:00 +20°C° 0 mm 1 m/s 690 mmHg 62%
    19:00 +19°C° 0 mm 1 m/s 690 mmHg 70%
    20:00 +16°C° 0 mm 1 m/s 690 mmHg 74%
    21:00 +15°C° 0 mm 1 m/s 690 mmHg 78%
    22:00 +13°C° 0 mm 1 m/s 690 mmHg 83%
    23:00 +13°C° 0 mm 1 m/s 690 mmHg 84%

    28 Iulie, Vineri

    Timp Temperatura Precipitaţii Vânt Presiune Umiditate
    00:00 +12°C° 0 mm 1 m/s 690 mmHg 85%
    01:00 +12°C° 0 mm 1 m/s 690 mmHg 86%
    02:00 +12°C° 0 mm 1 m/s 690 mmHg 86%
    03:00 +12°C° 0 mm 1 m/s 690 mmHg 86%
    04:00 +11°C° 0 mm 1 m/s 690 mmHg 86%
    05:00 +13°C° 0 mm 1 m/s 691 mmHg 80%
    06:00 +15°C° 0 mm 1 m/s 691 mmHg 74%
    07:00 +18°C° 0 mm 1 m/s 692 mmHg 68%
    08:00 +19°C° 0 mm 0 m/s 692 mmHg 60%
    09:00 +22°C° 0 mm 0 m/s 693 mmHg 51%
    10:00 +24°C° 0 mm 0 m/s 693 mmHg 43%
    11:00 +26°C° 0 mm 0 m/s 693 mmHg 41%
    12:00 +27°C° 0 mm 0 m/s 693 mmHg 39%
    13:00 +28°C° 0 mm 0 m/s 693 mmHg 37%
    14:00 +29°C° 0 mm 1 m/s 693 mmHg 38%
    15:00 +29°C° 0 mm 1 m/s 693 mmHg 40%
    16:00 +28°C° 0 mm 1 m/s 693 mmHg 41%
    17:00 +26°C° 0 mm 1 m/s 692 mmHg 51%
    18:00 +22°C° 0 mm 0 m/s 692 mmHg 61%
    19:00 +20°C° 0 mm 0 m/s 692 mmHg 70%
    20:00 +18°C° 0 mm 0 m/s 692 mmHg 74%
    21:00 +17°C° 0 mm 0 m/s 692 mmHg 78%
    22:00 +15°C° 0 mm 0 m/s 692 mmHg 82%
    23:00 +15°C° 0 mm 0 m/s 692 mmHg 83%
    Arată mai mult